Flag for U.S.A. Weather past 2 weeks in Key West, Florida, U.S.A.

Now
73 °F

Clear.


Feels Like: 72 °F
Forecast: 70 / 80 °F
Wind: 8 mph from East

Location: Key West International Airport

Current Time: Mar 3, 2015 at 4:11:36 AM

Latest Report: Mar 3, 2015 at 3:53 AM


Visibility: 10 mi

Pressure: 30.12 "Hg

Humidity: 84%

Dew point: 68 °F

Location of Key WestLocation

Historic Weather in Key West — Graph

°F

Key West temperature yesterday

Maximum temperature yesterday: 80 °F (at 11:53 AM)
Minimum temperature yesterday: 73 °F (at 5:53 AM)
Average temperature yesterday: 76 °F

Past Weeks' High & Low Weather Summary

 TemperatureHumidityPressure
High81 °F (Feb 23, 1:53 PM)100% (Feb 17, 11:04 PM)30.35 "Hg (Feb 17, 11:04 PM)
Low49 °F (Feb 20, 5:53 AM)44% (Feb 20, 11:53 AM)29.83 "Hg (Feb 26, 2:53 AM)
Average70 °F82%30.11 "Hg
* Reported Feb 16 2:53 AM — Mar 3 2:53 AM, Key West, Weather by CustomWeather, © 2015

Note: Actual official high and low records may vary slightly from our data, if they occured in-between our weather recording intervals... More about our weather records

Advertising

Key West weather history for previous 24 hours

 ConditionsComfort  
Time TempWeatherWind HumidityBarometerVisibility
2:53 AM
Tue, Mar 3
73 °FPassing clouds.9 mph88%30.13 "Hg10 mi
1:53 AM74 °FPassing clouds.9 mph85%30.15 "Hg10 mi
12:53 AM73 °FClear.7 mph81%30.17 "Hg10 mi
11:53 PM
Mon, Mar 2
73 °FClear.8 mph81%30.18 "Hg10 mi
10:53 PM74 °FClear.8 mph79%30.20 "Hg10 mi
9:53 PM74 °FClear.8 mph76%30.20 "Hg10 mi
8:53 PM74 °FClear.10 mph82%30.20 "Hg10 mi
7:53 PM74 °FClear.10 mph85%30.19 "Hg10 mi
6:53 PM75 °FClear.9 mph82%30.17 "Hg10 mi
5:53 PM77 °FPassing clouds.12 mph82%30.16 "Hg10 mi
4:53 PM78 °FSunny.13 mph74%30.15 "Hg10 mi
3:53 PM79 °FSunny.12 mph74%30.16 "Hg10 mi
2:53 PM79 °FSunny.14 mph74%30.16 "Hg10 mi
1:53 PM80 °FSunny.14 mph74%30.19 "Hg10 mi
12:53 PM80 °FSunny.14 mph74%30.21 "Hg10 mi
11:53 AM80 °FScattered clouds.13 mph74%30.24 "Hg10 mi
10:53 AM79 °FPassing clouds.15 mph77%30.25 "Hg10 mi
9:53 AM78 °FSunny.14 mph76%30.26 "Hg10 mi
8:53 AM77 °FPassing clouds.12 mph79%30.25 "Hg10 mi
7:53 AM76 °FSunny.5 mph82%30.24 "Hg10 mi
6:53 AM74 °FLight rain. Scattered clouds.7 mph88%30.23 "Hg10 mi
5:53 AM73 °FClear.8 mph90%30.21 "Hg10 mi
4:53 AM74 °FPassing clouds.10 mph88%30.19 "Hg10 mi
Weather by CustomWeather, © 2015

See weather overviewHow to use our weather pages